{"data":{"norad_id":44752,"intl_designator":"2019-074AR","name":"STARLINK-1047","alt_names":[],"object_type":"PAYLOAD","status":"ACTIVE","operator":null,"country":"US","launch_date":"2019-11-11","launch_site_code":"AFETR","launch_vehicle":null,"mission":null,"orbit_class":"UNKNOWN","rcs_meters":null,"size_class":null,"mass_kg":null,"dimensions":null,"purposes":["comms"],"wikipedia_slug":null,"has_3d_model":false,"image_url":null,"decayed_at":null,"tle_current":{"epoch":"2026-05-25T00:19:58.444032Z","epoch_age_seconds":80603,"freshness":"FRESH","line1":"1 44752U 19074AR  26145.01387088  .00015480  00000+0  47234-3 0  9996","line2":"2 44752  53.0680 148.9926 0003669  85.9110 274.2311 15.34125613361059","mean_motion":15.34125613,"eccentricity":0.0003669,"inclination_deg":53.068,"raan_deg":148.9926,"arg_perigee_deg":85.911,"mean_anomaly_deg":274.2311,"bstar":0.00047234,"rev_number":36105,"period_min":93.864543281046,"perigee_km":461.00869419691,"apogee_km":466.02910129468,"semimajor_km":6841.6558977458,"source":"CELESTRAK","updated_at":"2026-05-25T13:38:16.374069Z"}}}